Location: *
(46.0770°N, 1.6444°E)
Time: 11:10:24
(UTC+00:00)

Cosmos 1025 Rocket - Pass Details

Date: 16 September 2019
Orbit: 593 x 619 km, 82.5° (Epoch: 19 October)

Event Time Altitude Azimuth Distance (km) Brightness Sun altitude
Rises 18:50:22 0° 352° (N) 2,850 6.8 -8.8°
Reaches altitude 10° 18:52:36 10° 354° (N) 1,941 5.9 -9.2°
Maximum altitude 18:56:53 75° 80° (E) 620 2.9 -9.9°
Drops below altitude 10° 19:01:07 10° 167° (SSE) 1,922 5.3 -10.6°
Sets 19:03:19 0° 169° (SSE) 2,819 6.2 -11.0°
